Location: Gull Harbor
(47.1000°N, 122.9000°W)
Time: 04:47:33
(UTC-07:00)

Envisat - Pass Details

Date: 26 March 2019
Orbit: 764 x 766 km, 98.2° (Epoch: 24 April)

Event Time Altitude Azimuth Distance (km) Brightness Sun altitude
Rises 20:50:49 0° 203° (SSW) 3,221 6.3 -13.8°
Reaches altitude 10° 20:53:37 10° 219° (SW) 2,300 5.7 -14.3°
Maximum altitude 20:57:29 22° 269° (W) 1,642 5.6 -14.9°
Drops below altitude 10° 21:01:23 10° 319° (NW) 2,313 6.5 -15.5°
Sets 21:04:13 0° 334° (NNW) 3,244 7.0 -15.9°
